OE1TRI-13 Weather Reports


time (UTC)temp
C
wind
direction
speed
KPH
gust
KPH
rain 1hr
cm
rain 24hr
cm
rain mn
cm
humidity
%
barometer
mb
20260507095004 11 45 14.5 16.1 0.00 0.08 0.00 75 1029.8
20260507094005 11 45 12.9 12.9 0.00 0.08 0.00 73 1029.8
20260507093005 12 292 11.3 20.9 0.00 0.08 0.00 71 1028.8
20260507092004 12 22 9.7 14.5 0.00 0.08 0.00 67 1028.8
20260507091005 13 338 12.9 14.5 0.00 0.08 0.00 65 1028.8
20260507090005 14 270 8.0 16.1 0.00 0.08 0.00 61 1028.8
20260507084005 13 292 11.3 16.1 0.00 0.08 0.00 57 1028.8
20260507083005 13 315 14.5 16.1 0.00 0.08 0.00 61 1028.8
20260507082005 13 315 8.0 8.0 0.00 0.08 0.00 62 1028.8
20260507081004 12 315 1.6 8.0 0.00 0.08 0.00 66 1028.8
20260507080005 12 270 4.8 8.0 0.00 0.08 0.00 71 1028.8
20260507075005 12 338 8.0 9.7 0.00 0.08 0.00 72 1028.8
20260507074005 12 315 1.6 8.0 0.00 0.08 0.00 72 1028.8
20260507073005 11 292 0.0 0.0 0.00 0.08 0.00 74 1028.8
20260507072005 11 45 0.0 1.6 0.00 0.08 0.00 78 1028.8
20260507071005 11 45 1.6 3.2 0.00 0.08 0.00 78 1028.8
20260507070009 11 45 1.6 1.6 0.00 0.08 0.00 77 1028.8
20260507065005 10 45 1.6 1.6 0.00 0.08 0.00 79 1028.8
20260507064005 10 45 0.0 8.0 0.00 0.08 0.00 82 1028.8
20260507063005 10 68 1.6 3.2 0.00 0.08 0.00 82 1028.8
20260507062005 10 45 0.0 3.2 0.00 0.08 0.00 82 1028.8
20260507061004 10 45 0.0 4.8 0.00 0.08 0.00 81 1028.8
20260507060005 10 16 1.6 4.8 0.00 0.08 0.00 80 1028.8
20260507055005 9 248 0.0 1.6 0.00 0.08 0.00 82 1028.4
20260507054005 8 248 1.6 1.6 0.00 0.08 0.00 85 1027.8
20260507053005 8 248 0.0 1.6 0.00 0.08 0.00 85 1027.8
20260507052005 8 270 3.2 4.8 0.00 0.08 0.00 86 1027.8
20260507051005 7 270 0.0 0.0 0.00 0.08 0.00 87 1027.8
20260507050005 7 270 0.0 0.0 0.00 0.08 0.00 88 1027.8
20260507045004 7 202 0.0 0.0 0.00 0.08 0.00 87 1027.8
20260507044005 7 158 0.0 0.0 0.00 0.08 0.00 88 1027.8
20260507043005 7 158 0.0 0.0 0.00 0.08 0.00 88 1027.8
20260507041005 7 158 0.0 8.0 0.00 0.08 0.00 88 1027.8
20260507040005 7 158 1.6 1.6 0.00 0.08 0.00 88 1027.8
20260507035005 7 158 0.0 0.0 0.00 0.08 0.00 89 1027.8
20260507034005 6 225 0.0 0.0 0.00 0.08 0.00 89 1027.8
20260507033005 6 225 0.0 0.0 0.00 0.08 0.00 90 1027.1
20260507032005 6 225 0.0 0.0 0.00 0.08 0.00 89 1027.1
20260507031005 6 135 0.0 0.0 0.00 0.08 0.00 89 1027.1
20260507030005 6 135 0.0 0.0 0.00 0.08 0.00 90 1027.1
20260507025004 6 135 0.0 0.0 0.00 0.08 0.00 90 1027.1
20260507024005 6 135 0.0 0.0 0.00 0.08 0.00 90 1027.8
20260507023005 6 135 0.0 0.0 0.00 0.08 0.00 90 1027.1
20260507022005 6 135 0.0 0.0 0.00 0.08 0.00 90 1027.1
20260507021004 6 135 0.0 0.0 0.00 0.08 0.00 90 1027.1
20260507014005 7 135 0.0 0.0 0.00 0.08 0.00 89 1027.1
20260507013005 7 158 0.0 0.0 0.00 0.08 0.00 88 1027.1
20260507012005 7 158 0.0 0.0 0.00 0.08 0.00 88 1027.1
20260507011005 7 158 0.0 1.6 0.00 0.08 0.00 88 1027.1
20260507010005 7 158 0.0 1.6 0.00 0.08 0.00 88 1027.1
20260507005005 7 158 0.0 8.0 0.00 0.08 0.00 88 1027.1
20260507004004 7 158 8.0 8.0 0.00 0.08 0.00 88 1027.1
20260507003005 7 158 0.0 3.2 0.00 0.08 0.00 88 1027.1
20260507002005 7 135 1.6 1.6 0.00 0.08 0.00 88 1027.1
20260507000005 7 135 1.6 1.6 0.00 0.08 0.00 88 1027.1
20260506235005 8 135 1.6 3.2 0.00 0.08 0.00 88 1027.1
20260506234005 8 158 3.2 3.2 0.00 0.08 0.00 88 1027.1
20260506231005 8 158 1.6 1.6 0.00 0.08 0.00 87 1027.1
20260506230005 8 158 0.0 8.0 0.00 0.08 0.00 87 1027.1
20260506225005 8 159 3.2 8.0 0.00 0.08 0.00 87 1027.1
20260506224004 8 180 3.2 8.0 0.00 0.08 0.00 88 1027.1
20260506222005 9 158 1.6 1.6 0.00 0.08 0.00 86 1027.1
20260506221005 10 180 3.2 3.2 0.00 0.08 0.00 85 1027.1
20260506220005 10 90 1.6 1.6 0.00 0.08 0.00 85 1027.1
20260506215006 9 90 1.6 1.6 0.00 0.08 0.08 86 1027.1
20260506214004 9 338 0.0 0.0 0.00 0.08 0.08 84 1027.1
20260506213005 10 338 0.0 1.6 0.00 0.08 0.08 84 1026.1
20260506211005 10 315 1.6 4.8 0.00 0.08 0.08 79 1026.1
20260506210005 10 68 4.8 8.0 0.00 0.08 0.08 78 1026.1
20260506205005 10 315 1.6 9.7 0.00 0.08 0.08 78 1026.1
20260506204005 10 292 9.7 12.9 0.00 0.08 0.08 79 1026.1
20260506202004 10 68 3.2 9.7 0.00 0.08 0.08 88 1025.1
20260506201004 10 270 9.7 9.7 0.00 0.08 0.08 84 1025.1
20260506200005 10 292 0.0 4.8 0.00 0.08 0.08 89 1025.1
20260506195005 10 45 4.8 8.0 0.00 0.08 0.08 88 1025.1
20260506194005 10 270 1.6 1.6 0.00 0.08 0.08 86 1025.1
20260506193005 11 270 1.6 1.6 0.00 0.08 0.08 87 1025.1
20260506192005 11 270 1.6 1.6 0.05 0.08 0.08 85 1025.1
20260506191004 11 270 1.6 1.6 0.08 0.08 0.08 85 1025.1
20260506185005 12 292 8.0 8.0 0.08 0.08 0.08 83 1024.0
20260506184005 12 248 1.6 3.2 0.08 0.08 0.08 85 1023.0
20260506183005 12 158 3.2 3.2 0.08 0.08 0.08 81 1023.0
20260506182005 13 292 1.6 8.0 0.03 0.03 0.03 77 1023.0
20260506181005 15 292 8.0 11.3 0.00 0.00 0.00 68 1023.0
20260506180006 15 292 11.3 11.3 0.00 0.00 0.00 63 1022.0
20260506174005 16 315 8.0 8.0 0.00 0.00 0.00 50 1022.0
20260506172005 17 45 1.6 8.0 0.00 0.00 0.00 45 1022.0
20260506171004 18 292 4.8 11.3 0.00 0.00 0.00 44 1022.0
20260506170004 18 315 9.7 9.7 0.00 0.00 0.00 42 1021.0
20260506165005 18 292 1.6 8.0 0.00 0.00 0.00 42 1021.0
20260506164005 18 282 3.2 9.7 0.00 0.00 0.00 42 1021.0
20260506163005 18 298 9.7 20.9 0.00 0.00 0.00 41 1021.0
20260506161005 19 61 9.7 11.3 0.00 0.00 0.00 38 1021.0
20260506155004 21 338 8.0 8.0 0.00 0.00 0.00 37 1021.0
20260506154005 21 292 1.6 8.0 0.00 0.00 0.00 35 1021.0
20260506153005 21 292 3.2 8.0 0.00 0.00 0.00 35 1020.0
20260506152005 20 292 1.6 8.0 0.00 0.00 0.00 36 1020.0
20260506151004 20 270 8.0 8.0 0.00 0.00 0.00 37 1020.0
20260506150005 20 292 6.4 9.7 0.00 0.00 0.00 37 1020.0
20260506145004 21 292 8.0 9.7 0.00 0.00 0.00 37 1020.0
20260506143005 22 248 1.6 1.6 0.00 0.00 0.00 31 1020.0
20260506142005 21 248 0.0 8.0 0.00 0.00 0.00 32 1020.0
20260506140005 22 225 8.0 11.3 0.00 0.00 0.00 34 1020.0
20260506135005 22 180 11.3 11.3 0.00 0.00 0.00 32 1020.0
20260506134005 23 202 11.3 11.3 0.00 0.00 0.00 31 1020.0
20260506133005 23 180 8.0 8.0 0.00 0.00 0.00 29 1020.0
20260506132005 23 135 4.8 8.0 0.00 0.00 0.00 29 1020.0
20260506130005 22 158 4.8 8.0 0.00 0.00 0.00 32 1020.0
20260506125005 23 180 1.6 4.8 0.00 0.00 0.00 30 1020.0
20260506124004 23 225 1.6 9.7 0.00 0.00 0.00 30 1020.0
20260506123005 23 202 9.7 9.7 0.00 0.00 0.00 30 1021.0
20260506121004 22 135 12.9 16.1 0.00 0.00 0.00 33 1021.0
20260506120005 23 180 9.7 9.7 0.00 0.00 0.00 32 1021.0
20260506115005 25 180 8.0 11.3 0.00 0.00 0.00 31 1021.0
20260506114005 25 158 1.6 4.8 0.00 0.00 0.00 28 1021.0
20260506113005 22 158 1.6 1.6 0.00 0.00 0.00 31 1021.0
20260506112004 21 338 1.6 4.8 0.00 0.00 0.00 37 1021.0
20260506111005 21 68 4.8 4.8 0.00 0.00 0.00 37 1021.0
20260506110005 20 68 1.6 14.5 0.00 0.00 0.00 38 1022.0
20260506105005 20 22 9.7 14.5 0.00 0.00 0.00 41 1022.0
20260506103005 18 22 8.0 11.3 0.00 0.00 0.00 50 1022.0
20260506102004 18 315 9.7 11.3 0.00 0.00 0.00 49 1022.0
20260506100005 17 22 4.8 8.0 0.00 0.00 0.00 51 1023.0